Torna al catalogo

CZ-6A R/B

AttivoLEO
NORAD 68197·ROCKET BODY·🇨🇳 China

Lanciato Mar 15, 2026 da Taiyuan Satellite Launch Center

Loading…

Prossimi Passaggi (prossime 24 ore)

TLE

AggiornatoSource: Space-Track

Epoca: Sep 14, 2026, 14:37 UTC

1 68197U 26051B   26257.60964884  .00000867  00000-0  98928-4 0  9993
2 68197 142.0288 152.5343 0186148 344.2379  15.2653 14.56549737 26710

Traccia CZ-6A R/B in tempo reale con AllMySat

Download on the App Store